Waarnemingen

Advertentie
Mijn weer
Bezier-Vias, Frankrijk (7638): temperatuur & dauwpunt: 14.07.2018 04:00:00 - 20.07.2018 04:00:00 (CEST)Bezier-Vias, Frankrijk (7638): windsnelheid & windstoten: 14.07.2018 04:00:00 - 20.07.2018 04:00:00 (CEST)Bezier-Vias, Frankrijk (7638): windrichting: 14.07.2018 04:00:00 - 20.07.2018 04:00:00 (CEST)Bezier-Vias, Frankrijk (7638): luchtdruk: 14.07.2018 04:00:00 - 20.07.2018 04:00:00 (CEST)Bezier-Vias, Frankrijk (7638): zicht: 14.07.2018 04:00:00 - 20.07.2018 04:00:00 (CEST)Bezier-Vias, Frankrijk (7638): neerslag: 14.07.2018 04:00:00 - 20.07.2018 04:00:00 (CEST)
Datum & Tijd tt [°C] td [°C] ff [km/u] ff [kn] fx [km/u] fx [kn] dd ppp [hPa] vv [km] rr [mm]
20.07.2018 04:00:00 19,7 15,8 3 1 10 5 NW 1013,3 55 0,0
20.07.2018 03:00:00 19,4 15,9 8 4 12 6 NW 1013,2 55 0,0
20.07.2018 02:00:00 20,8 15,8 2 1 7 4 N 1013,5 47 0,0
20.07.2018 01:00:00 21,3 16,0 2 1 5 3 N 1013,8 57 0,0
20.07.2018 00:00:00 21,7 16,2 3 2 7 4 NNW 1013,8 57 0,0
19.07.2018 23:00:00 22,3 15,6 5 3 11 6 W 1013,7 60 0,0
19.07.2018 22:00:00 24,1 16,4 5 3 14 8 W 1013,2 60 0,0
19.07.2018 21:00:00 26,0 16,5 11 6 24 13 ZW 1012,8 56 0,0
19.07.2018 20:00:00 28,2 14,4 14 7 32 18 ZZW 1012,7 33 0,0
19.07.2018 19:00:00 29,4 13,6 17 9 33 18 ZZW 1012,7 17 0,0
19.07.2018 18:00:00 30,1 15,0 22 12 34 19 ZZW 1013,0 19 0,0
19.07.2018 17:00:00 32,2 10,8 18 10 31 17 ZZW 1013,1 22 0,0
19.07.2018 16:00:00 31,9 11,7 21 11 30 16 ZZW 1013,6 25 0,0
19.07.2018 15:00:00 33,6 12,0 9 5 22 12 ZZW 1013,7 29 0,0
19.07.2018 14:00:00 32,4 13,1 12 7 24 13 WZW 1014,3 28 0,0
19.07.2018 13:00:00 31,6 13,8 13 7 23 12 WZW 1014,7 31 0,0
19.07.2018 12:00:00 30,0 16,8 13 7 24 13 W 1015,0 33 0,0
19.07.2018 11:00:00 26,9 17,4 16 9 26 14 W 1015,3 35 0,0
19.07.2018 10:00:00 24,6 17,3 15 8 24 13 W 1015,3 39 0,0
19.07.2018 09:00:00 22,4 17,5 15 8 27 15 W 1015,2 44 0,0
19.07.2018 08:00:00 20,3 17,7 11 6 17 9 W 1015,0 48 0,0
19.07.2018 07:00:00 17,8 16,5 8 4 14 8 WNW 1014,7 20 0,0
19.07.2018 06:00:00 17,6 16,5 9 5 14 8 W 1014,9 20 0,0
19.07.2018 05:00:00 18,1 16,8 10 5 16 8 NNW 1014,5 20 0,0
19.07.2018 04:00:00 18,7 17,0 9 5 22 12 WZW 1014,2 32 0,0
19.07.2018 03:00:00 19,1 17,2 15 8 21 12 NW 1013,7 47 0,0
19.07.2018 02:00:00 19,5 17,8 9 5 22 12 W 1014,3 39 0,0
19.07.2018 01:00:00 20,1 18,2 16 8 22 12 WNW 1014,8 41 0,0
19.07.2018 00:00:00 20,7 18,6 6 3 30 16 NW 1015,2 43 0,0
18.07.2018 23:00:00 20,9 18,8 18 10 32 18 NNW 1015,0 30 0,8
18.07.2018 22:00:00 20,9 19,0 16 9 39 21 WNW 1017,3 10 1,4
18.07.2018 21:00:00 23,8 16,8 13 7 24 13 NNW 1015,8 44 0,0
18.07.2018 20:00:00 24,5 16,5 4 2 13 7 NO 1013,7 60 0,0
18.07.2018 19:00:00 24,9 16,6 10 5 27 15 Z 1013,2 60 0,0
18.07.2018 18:00:00 27,2 13,9 19 10 32 18 Z 1013,2 21 0,0
18.07.2018 17:00:00 28,1 13,6 18 10 30 16 ZZO 1013,5 23 0,0
18.07.2018 16:00:00 28,9 13,9 18 10 29 16 Z 1014,3 20 0,0
18.07.2018 15:00:00 29,0 13,6 16 9 27 15 Z 1014,6 30 0,0
18.07.2018 14:00:00 28,4 13,1 18 10 30 16 Z 1014,7 34 0,0
18.07.2018 13:00:00 29,3 13,9 16 9 24 13 Z 1015,2 44 0,0
18.07.2018 12:00:00 29,5 12,4 8 4 23 12 NW 1015,5 44 0,0
18.07.2018 11:00:00 28,6 12,9 9 5 16 9 ZW 1016,1 31 0,0
18.07.2018 10:00:00 26,8 15,2 8 4 14 8 W 1016,2 27 0,0
18.07.2018 09:00:00 24,7 14,2 8 4 14 7 W 1016,3 60 0,0
18.07.2018 08:00:00 21,1 15,4 4 2 13 7 NW 1016,0 38 0,0
18.07.2018 07:00:00 17,9 15,9 5 3 9 5 WNW 1016,0 37 0,0
18.07.2018 06:00:00 18,2 16,0 6 4 9 5 W 1015,8 31 0,0
18.07.2018 05:00:00 18,7 15,9 5 3 11 6 W 1015,8 48 0,0
18.07.2018 04:00:00 19,5 15,6 7 4 11 6 W 1015,8 59 0,0
18.07.2018 03:00:00 19,4 15,9 5 3 11 6 NW 1016,1 60 0,0
18.07.2018 02:00:00 20,4 16,0 9 5 15 8 WNW 1016,3 60 0,0
18.07.2018 01:00:00 21,9 16,0 13 7 21 12 W 1016,5 60 0,0
18.07.2018 00:00:00 21,4 15,7 7 4 16 9 W 1016,5 60 0,0
17.07.2018 23:00:00 23,8 15,6 8 5 19 10 WZW 1016,2 60 0,0
17.07.2018 22:00:00 25,8 13,6 15 8 34 18 WNW 1015,7 60 0,0
17.07.2018 21:00:00 27,9 13,0 20 11 31 17 NNW 1015,1 27 0,0
17.07.2018 20:00:00 29,9 11,9 20 11 34 18 NNW 1014,9 16 0,0
17.07.2018 19:00:00 31,1 11,0 21 12 35 19 NNW 1014,7 16 0,0
17.07.2018 18:00:00 32,1 9,6 20 11 37 20 NW 1015,1 16 0,0
17.07.2018 17:00:00 31,8 11,0 21 11 39 21 NW 1015,5 16 0,0
17.07.2018 16:00:00 31,3 12,1 19 10 37 20 NNW 1015,9 17 0,0
17.07.2018 15:00:00 30,7 12,6 23 12 42 23 NNW 1016,3 20 0,0
17.07.2018 14:00:00 30,2 12,1 23 12 38 21 NNW 1016,7 23 0,0
17.07.2018 13:00:00 29,0 13,6 20 11 37 20 WNW 1017,3 25 0,0
17.07.2018 12:00:00 27,7 13,6 23 12 39 21 WNW 1017,6 28 0,0
17.07.2018 11:00:00 26,1 13,9 26 14 37 20 W 1017,6 20 0,0
17.07.2018 10:00:00 25,1 13,0 25 14 39 21 NW 1017,9 34 0,0
17.07.2018 09:00:00 23,3 14,3 23 12 37 20 WNW 1017,9 43 0,0
17.07.2018 08:00:00 21,7 14,6 24 13 39 21 W 1017,9 51 0,0
17.07.2018 07:00:00 20,5 14,8 26 14 44 24 W 1017,6 26 0,0
17.07.2018 06:00:00 20,8 15,3 29 15 40 21 WNW 1017,2 52 0,0
17.07.2018 05:00:00 20,8 16,0 23 13 41 22 NW 1017,0 46 0,0
17.07.2018 04:00:00 21,8 16,1 20 11 45 24 WNW 1016,7 50 0,0
17.07.2018 03:00:00 21,7 17,1 24 13 45 25 W 1016,9 43 0,0
17.07.2018 02:00:00 21,7 17,5 18 10 44 24 W 1016,9 46 0,0
17.07.2018 01:00:00 21,8 17,2 24 13 39 21 W 1016,6 49 0,0
17.07.2018 00:00:00 22,3 16,3 18 10 29 16 W 1016,6 60 0,0
16.07.2018 23:00:00 22,1 16,4 20 11 36 20 W 1015,9 59 0,0
16.07.2018 22:00:00 22,3 16,8 19 10 34 18 WZW 1015,0 60 0,0
16.07.2018 21:00:00 24,2 15,7 22 12 40 21 W 1014,2 53 0,0
16.07.2018 20:00:00 26,0 15,1 29 15 49 26 WNW 1013,4 29 0,0
16.07.2018 19:00:00 26,0 15,1 31 17 49 26 WNW 1013,0 31 0,0
16.07.2018 18:00:00 26,1 15,2 30 16 46 25 WNW 1012,3 44 0,0
16.07.2018 17:00:00 24,3 15,5 24 13 39 21 WNW 1012,1 60 0,0
16.07.2018 16:00:00 23,6 15,9 24 13 37 20 NW 1012,1 60 0,0
16.07.2018 15:00:00 23,5 18,6 17 9 26 14 WNW 1012,0 60 0,0
16.07.2018 14:00:00 20,1 18,6 13 7 31 17 W 1012,7 50 0,4
16.07.2018 13:00:00 19,3 17,8 19 11 53 28 W 1012,2 14 2,9
16.07.2018 12:00:00 18,7 16,8 31 17 50 27 NW 1012,6 9 2,2
16.07.2018 11:00:00 20,5 18,6 20 11 31 17 WNW 1011,9 3,6 2,2
16.07.2018 10:00:00 22,1 18,1 11 6 27 14 NW 1011,5 46 0,0
16.07.2018 09:00:00 21,2 18,8 9 5 39 21 ZW 1011,2 20 2,4
16.07.2018 08:00:00 21,4 17,6 10 5 16 9 NW 1011,2 14 0,2
16.07.2018 07:00:00 20,4 17,6 9 5 16 9 NW 1011,6 33 0,0
16.07.2018 06:00:00 20,2 17,6 7 4 9 5 NNW 1011,5 32 0,0
16.07.2018 05:00:00 20,6 18,0 5 3 20 11 NW 1012,3 31 0,0
16.07.2018 04:00:00 21,1 19,4 10 5 14 8 NW 1012,6 14 0,0
16.07.2018 03:00:00 22,1 20,2 6 4 19 10 O 1012,9 12 0,0
16.07.2018 02:00:00 21,7 19,6 9 5 16 9 O 1013,3 13 0,0
16.07.2018 01:00:00 22,3 20,2 8 4 13 7 WNW 1013,7 13 0,0
16.07.2018 00:00:00 22,5 19,9 4 2 8 5 ONO 1012,8 16 0,0
15.07.2018 23:00:00 23,3 20,1 5 3 6 4 ONO 1012,9 19 0,0
15.07.2018 22:00:00 24,3 20,8 4 2 9 5 Z 1012,5 20 0,0
15.07.2018 21:00:00 24,9 20,4 7 4 17 9 Z 1012,1 27 0,0
15.07.2018 20:00:00 26,1 19,7 13 7 19 10 Z 1012,1 37 0,0
15.07.2018 19:00:00 27,3 18,9 12 7 24 13 ZZO 1012,3 28 0,0
15.07.2018 18:00:00 29,7 13,5 13 7 25 13 Z 1012,6 28 0,0
15.07.2018 17:00:00 30,2 12,1 10 5 20 11 ZZO 1012,9 30 0,0
15.07.2018 16:00:00 29,6 13,4 13 7 27 14 Z 1013,5 30 0,0
15.07.2018 15:00:00 29,0 14,0 13 7 25 13 Z 1014,0 31 0,0
15.07.2018 14:00:00 28,4 14,6 15 8 24 13 Z 1014,6 41 0,0
15.07.2018 13:00:00 27,8 14,4 13 7 24 13 Z 1015,2 48 0,0
15.07.2018 12:00:00 27,4 16,4 11 6 24 13 ZZW 1015,6 53 0,0
15.07.2018 11:00:00 27,1 15,1 11 6 21 11 Z 1015,3 58 0,0
15.07.2018 10:00:00 26,7 14,1 5 3 14 7 ZZW 1015,5 60 0,0
15.07.2018 09:00:00 24,7 15,3 6 3 16 8 W 1015,3 35 0,0
15.07.2018 08:00:00 23,3 15,4 9 5 13 7 WNW 1015,0 53 0,0
15.07.2018 07:00:00 21,6 15,4 2 1 21 11 ZW 1014,6 60 0,0
15.07.2018 06:00:00 22,7 15,3 13 7 32 18 NO 1014,5 60 0,0
15.07.2018 05:00:00 21,2 15,7 13 7 20 11 NNO 1014,9 38 0,0
15.07.2018 04:00:00 21,1 15,9 14 8 25 13 W 1015,8 32 0,0
15.07.2018 03:00:00 20,7 15,0 6 4 9 5 NNO 1014,7 41 0,0
15.07.2018 02:00:00 20,7 15,0 4 2 7 4 NNO 1014,6 36 0,0
15.07.2018 01:00:00 21,9 14,5 0 0 5 3 N 1015,1 14 0,0
15.07.2018 00:00:00 21,9 15,0 3 1 6 3 ZW 1014,9 24 0,0
14.07.2018 23:00:00 23,9 15,4 3 1 8 4 ZZW 1015,0 44 0,0
14.07.2018 22:00:00 24,9 15,8 3 1 6 4 ZZW 1014,5 49 0,0
14.07.2018 21:00:00 26,2 16,7 5 3 19 10 ZW 1014,1 52 0,0
14.07.2018 20:00:00 27,3 16,9 10 5 18 10 ZZW 1014,1 41 0,0
14.07.2018 19:00:00 28,0 16,6 12 6 23 13 Z 1014,5 25 0,0
14.07.2018 18:00:00 28,9 15,8 14 7 24 13 Z 1014,8 20 0,0
14.07.2018 17:00:00 29,6 15,0 14 8 27 14 Z 1015,0 26 0,0
14.07.2018 16:00:00 30,2 13,0 16 9 26 14 ZZO 1015,1 31 0,0
14.07.2018 15:00:00 31,0 12,4 15 8 27 14 ZZO 1015,4 31 0,0
14.07.2018 14:00:00 29,7 15,8 16 9 28 15 ZZO 1015,8 34 0,0
14.07.2018 13:00:00 30,3 16,0 16 9 28 15 Z 1016,0 41 0,0
14.07.2018 12:00:00 31,3 15,7 6 4 17 9 W 1016,2 44 0,0
14.07.2018 11:00:00 29,6 13,4 5 3 18 10 NNO 1016,5 58 0,0
14.07.2018 10:00:00 27,5 15,8 5 3 13 7 NW 1016,6 54 0,0
14.07.2018 09:00:00 24,8 17,0 4 2 16 9 NNW 1016,8 47 0,0
14.07.2018 08:00:00 23,3 16,8 6 3 14 7 NNW 1016,8 43 0,0
14.07.2018 07:00:00 22,7 16,0 9 5 16 9 NNW 1016,5 53 0,0
14.07.2018 06:00:00 22,3 15,6 3 2 8 4 WZW 1016,3 47 0,0
14.07.2018 05:00:00 22,1 14,0 4 2 13 7 ZZW 1016,7 51 0,0
14.07.2018 04:00:00 21,7 12,8 9 5 15 8 NNO 1016,5 52 0,0

tt = temperatuur
td = dauwpunt
ff = windsnelheid
fx = windstoten
dd = windrichting
ppp = luchtdruk
vv = zicht
rr = neerslag

Weerstations in de omgeving